TimeCDT,TemperatureF,Dew PointF,Humidity,Sea Level PressureIn,VisibilityMPH,Wind Direction,Wind SpeedMPH,Gust SpeedMPH,PrecipitationIn,Events,Conditions,WindDirDegrees,DateUTC
12:52 AM,48.0,37.9,68,30.17,10.0,NNW,8.1,-,N/A,,Overcast,330,2012-10-07 05:52:00
1:52 AM,48.0,37.9,68,30.17,10.0,NNW,8.1,-,N/A,,Overcast,340,2012-10-07 06:52:00
2:52 AM,46.9,37.9,71,30.17,10.0,NNW,5.8,-,N/A,,Overcast,340,2012-10-07 07:52:00
3:52 AM,46.0,37.0,71,30.16,10.0,North,9.2,-,N/A,,Overcast,350,2012-10-07 08:52:00
4:52 AM,45.0,37.9,76,30.18,10.0,NNW,8.1,-,N/A,,Overcast,340,2012-10-07 09:52:00
5:52 AM,45.0,37.9,76,30.19,10.0,NNW,8.1,-,N/A,,Overcast,330,2012-10-07 10:52:00
6:52 AM,45.0,37.0,74,30.20,10.0,NNW,8.1,-,N/A,,Overcast,340,2012-10-07 11:52:00
7:52 AM,46.0,37.0,71,30.22,10.0,NNW,13.8,-,N/A,,Overcast,340,2012-10-07 12:52:00
8:52 AM,46.0,37.0,71,30.24,10.0,NNW,9.2,-,N/A,,Overcast,340,2012-10-07 13:52:00
9:52 AM,48.9,37.9,66,30.23,10.0,NNW,6.9,-,N/A,,Scattered Clouds,330,2012-10-07 14:52:00
10:52 AM,50.0,36.0,59,30.23,10.0,NNW,5.8,-,N/A,,Clear,340,2012-10-07 15:52:00
11:52 AM,54.0,34.0,47,30.22,10.0,NNE,10.4,-,N/A,,Clear,20,2012-10-07 16:52:00
12:52 PM,55.9,36.0,47,30.21,10.0,Variable,6.9,-,N/A,,Clear,0,2012-10-07 17:52:00
1:52 PM,55.9,34.0,44,30.19,10.0,North,8.1,-,N/A,,Clear,350,2012-10-07 18:52:00
2:52 PM,55.9,35.1,45,30.17,10.0,NW,6.9,-,N/A,,Clear,310,2012-10-07 19:52:00
3:52 PM,57.9,35.1,42,30.17,10.0,North,8.1,-,N/A,,Clear,350,2012-10-07 20:52:00
4:52 PM,57.0,34.0,42,30.17,10.0,NW,8.1,-,N/A,,Clear,320,2012-10-07 21:52:00
5:52 PM,55.0,35.1,47,30.17,10.0,North,6.9,-,N/A,,Clear,360,2012-10-07 22:52:00
6:52 PM,48.9,36.0,61,30.18,10.0,NNE,5.8,-,N/A,,Clear,20,2012-10-07 23:52:00
7:52 PM,48.0,37.0,66,30.18,10.0,North,6.9,-,N/A,,Clear,10,2012-10-08 00:52:00
8:52 PM,46.9,37.9,71,30.19,10.0,North,5.8,-,N/A,,Clear,10,2012-10-08 01:52:00
9:52 PM,45.0,37.0,74,30.19,10.0,North,4.6,-,N/A,,Clear,360,2012-10-08 02:52:00
10:52 PM,45.0,37.0,74,30.19,10.0,NNE,4.6,-,N/A,,Clear,20,2012-10-08 03:52:00
11:52 PM,46.0,37.9,73,30.19,10.0,NNE,3.5,-,N/A,,Clear,20,2012-10-08 04:52:00